Air Resources Laboratory banner image
Air Resources Laboratory web site National Oceanic and Atmospheric Administration (NOAA)

me roundup


Office: GYX

ASUS41 KGYX 180705
RWRGYX
WEATHER ROUNDUP FOR MAINE AND NEW HAMPSHIRE
NATIONAL WEATHER SERVICE GRAY ME
200 AM EST SUN NOV 18 2018

MEZ002-005-006-010-012-015-018-020-021-024-026-027-029-180800-
MAINE

CITY           SKY/WX    TMP DP  RH WIND       PRES   REMARKS
PORTLAND       CLOUDY    37  23  56 NW9       30.22R
SANFORD        CLOUDY    35  25  66 W5        30.22R
BAR HARBOR     MOCLDY    32  28  85 VRB7      30.19R
WISCASSET      CLOUDY    35  28  75 CALM      30.23R
ROCKLAND       CLOUDY    36  24  62 NW6       30.19R
FRYEBURG       MOCLDY    33  16  49 W10       30.21R
LEWISTONAUBURN CLOUDY    34  21  59 N6        30.22R
AUGUSTA        MOCLDY    33  17  51 NW10G20   30.21R
WATERVILLE     FAIR      31  18  58 MISG      30.19R
BANGOR         FAIR      30  23  75 NW8       30.21R
GREENVILLE       N/A     22  13  68 NW13G24   30.10R WCI  10
MILLINOCKET    FAIR      25  15  66 W9        30.18R
HOULTON        MOCLDY    22  18  85 W6        30.13R
PRESQUE ISLE   FAIR       8   5  87 CALM      30.13R
FRENCHVILLE    FAIR      19  11  70 NW8       30.07R
CARIBOU        FAIR      14  10  84 W5        30.11R
$$

NHZ002-005-008-009-011-012-014-180800-
NEW HAMPSHIRE

CITY           SKY/WX    TMP DP  RH WIND       PRES   REMARKS
PORTSMOUTH     CLOUDY    36  28  72 W6        30.22R
ROCHESTER      CLOUDY    36  26  67 CALM      30.21R
NASHUA         CLOUDY    35  30  82 W5        30.24R
MANCHESTER     CLOUDY    38  27  64 W6        30.21R
CONCORD        CLOUDY    35  25  66 NW9       30.23R
LACONIA        CLOUDY    34  22  61 W9        30.22R
PLYMOUTH       CLOUDY    32  23  69 NW8       30.23R
BERLIN         CLOUDY    26  19  74 VRB5      30.20R
WHITEFIELD     CLOUDY    28  18  66 W8        30.22R
JAFFREY        CLOUDY    35  27  72 W3        30.21R
KEENE          CLOUDY    35  28  75 W3        30.24R
LEBANON        MOCLDY    33  22  63 N5        30.24R
MT WASHINGTON  SNOW       5   5 100 W49         N/A  VSB 1/16WCI -24
$$

VTZ005-007-008-180800-
VERMONT

CITY           SKY/WX    TMP DP  RH WIND       PRES   REMARKS
ST JOHNSBURY     N/A     27  18  69 MISG      30.24R
MONTPELIER     CLOUDY    24  22  91 N5        30.27R
BURLINGTON     FLURRIES  27  14  58 N14       30.32R WCI  16
$$

MAZ007-012-024-CTZ003-RIZ002-NYZ038-NYZ072-180800-
SOUTHERN NEW ENGLAND AND NY

CITY           SKY/WX    TMP DP  RH WIND       PRES   REMARKS
BOSTON         MOCLDY    41  25  53 W8        30.25R
WORCESTER      FAIR      32  24  72 W8        30.22R
NANTUCKET      FAIR      41  27  57 NW13      30.25R
PROVIDENCE     FAIR      34  27  75 W6        30.27R
HARTFORD       MOCLDY    38  24  57 NW12G23   30.29R
ALBANY         FAIR      34  21  59 W14       30.32R
NEW YORK CITY  MOCLDY    43  28  55 NW13      30.30R
$$

ANZ081-ANZ082-ANZ150-NHZ014-MEZ023>029-180800-
COASTAL MARINE OBSERVATIONS

STATION/POSITION TIME  TEMP    WIND        PRES    WAVE
                       AIR SEA DIR/SP/G            HT/PER
                 (UTC) (F)     (DEG/KT/KT) (MB)    (FT/S)
MOUNT DESERT ROC 0700   40     300/ 24/ 26 1021.6R
MATINICUS ROCK   0600   40     320/ 23/ 27 1020.8R
ISLE OF SHOALS   0600   40     270/ 18/ 21 1022.2R
CASHES LEDGE BUO 0650   43 50              1021.9R   5/ 5
$$

.............KEY..............
   WCI - WIND CHILL
   TC  - TEMPERATURE IN CELSIUS
   VSB - VISIBILITY IN MILES
   HX  - HEAT INDEX
   FAIR- INDICATES FEW OR NO CLOUDS BELOW 12,000 FT, WITH NO
         SIGNIFICANT WEATHER AND/OR OBSTRUCTIONS TO VISIBILITY.




ASUS41 KGYX 180710
RWRGYX
WEATHER ROUNDUP FOR MAINE AND NEW HAMPSHIRE
NATIONAL WEATHER SERVICE GRAY ME
200 AM EST SUN NOV 18 2018

MEZ002-005-006-010-012-015-018-020-021-024-026-027-029-180800-
MAINE

CITY           SKY/WX    TMP DP  RH WIND       PRES   REMARKS
PORTLAND       CLOUDY    37  23  56 NW9       30.22R
SANFORD        CLOUDY    35  25  66 W5        30.22R
BAR HARBOR     MOCLDY    32  28  85 VRB7      30.19R
WISCASSET      CLOUDY    35  28  75 CALM      30.23R
ROCKLAND       CLOUDY    36  24  62 NW6       30.19R
FRYEBURG       MOCLDY    33  16  49 W10       30.21R
LEWISTONAUBURN CLOUDY    34  21  59 N6        30.22R
AUGUSTA        MOCLDY    33  17  51 NW10G20   30.21R
WATERVILLE     FAIR      31  18  58 MISG      30.19R
BANGOR         FAIR      30  23  75 NW8       30.21R
GREENVILLE       N/A     22  13  68 NW13G24   30.10R WCI  10
MILLINOCKET    FAIR      25  15  66 W9        30.18R
HOULTON        MOCLDY    22  18  85 W6        30.13R
PRESQUE ISLE   FAIR       8   5  87 CALM      30.13R
FRENCHVILLE    FAIR      19  11  70 NW8       30.07R
CARIBOU        FAIR      14  10  84 W5        30.11R
$$

NHZ002-005-008-009-011-012-014-180800-
NEW HAMPSHIRE

CITY           SKY/WX    TMP DP  RH WIND       PRES   REMARKS
PORTSMOUTH     CLOUDY    36  28  72 W6        30.22R
ROCHESTER      CLOUDY    36  26  67 CALM      30.21R
NASHUA         CLOUDY    35  30  82 W5        30.24R
MANCHESTER     CLOUDY    38  27  64 W6        30.21R
CONCORD        CLOUDY    35  25  66 NW9       30.23R
LACONIA        CLOUDY    34  22  61 W9        30.22R
PLYMOUTH       CLOUDY    32  23  69 NW8       30.23R
BERLIN         MOCLDY    26  16  65 VRB6      30.21R
WHITEFIELD     CLOUDY    28  18  66 W8        30.22R
JAFFREY        CLOUDY    35  27  72 W3        30.21R
KEENE          CLOUDY    35  28  75 W3        30.24R
LEBANON        MOCLDY    33  22  63 N5        30.24R
MT WASHINGTON  SNOW       5   5 100 W49         N/A  VSB 1/16WCI -24
$$

VTZ005-007-008-180800-
VERMONT

CITY           SKY/WX    TMP DP  RH WIND       PRES   REMARKS
ST JOHNSBURY     N/A     27  18  69 MISG      30.24R
MONTPELIER     LGT SNOW  24  22  91 VRB5      30.28R FOG
BURLINGTON     FLURRIES  27  14  58 N14       30.32R WCI  16
$$

MAZ007-012-024-CTZ003-RIZ002-NYZ038-NYZ072-180800-
SOUTHERN NEW ENGLAND AND NY

CITY           SKY/WX    TMP DP  RH WIND       PRES   REMARKS
BOSTON         MOCLDY    41  25  53 W8        30.25R
WORCESTER      FAIR      32  24  72 W8        30.22R
NANTUCKET      FAIR      41  27  57 NW13      30.25R
PROVIDENCE     FAIR      34  27  75 W6        30.27R
HARTFORD       MOCLDY    38  24  57 NW12G23   30.29R
ALBANY         FAIR      34  21  59 W14       30.32R
NEW YORK CITY  MOCLDY    43  28  55 NW13      30.30R
$$

ANZ081-ANZ082-ANZ150-NHZ014-MEZ023>029-180800-
COASTAL MARINE OBSERVATIONS

STATION/POSITION TIME  TEMP    WIND        PRES    WAVE
                       AIR SEA DIR/SP/G            HT/PER
                 (UTC) (F)     (DEG/KT/KT) (MB)    (FT/S)
MOUNT DESERT ROC 0700   40     300/ 24/ 26 1021.6R
MATINICUS ROCK   0600   40     320/ 23/ 27 1020.8R
ISLE OF SHOALS   0600   40     270/ 18/ 21 1022.2R
CASHES LEDGE BUO 0650   43 50              1021.9R   5/ 5
$$

.............KEY..............
   WCI - WIND CHILL
   TC  - TEMPERATURE IN CELSIUS
   VSB - VISIBILITY IN MILES
   HX  - HEAT INDEX
   FAIR- INDICATES FEW OR NO CLOUDS BELOW 12,000 FT, WITH NO
         SIGNIFICANT WEATHER AND/OR OBSTRUCTIONS TO VISIBILITY.






Office: BOX ASUS41 KBOX 180710 RWRBOX REGIONAL WEATHER ROUNDUP NATIONAL WEATHER SERVICE BOSTON/NORTON MA 200 AM EST SUN NOV 18 2018 NOTE: "FAIR" INDICATES FEW OR NO CLOUDS BELOW 12,000 FEET WITH NO SIGNIFICANT WEATHER AND/OR OBSTRUCTIONS TO VISIBILITY. MAZALL-180800- EASTERN MASSACHUSETTS CITY SKY/WX TMP DP RH WIND PRES REMARKS BOSTON MOCLDY 41 25 53 W8 30.25R BEVERLY FAIR 37 24 59 W5 30.23R LAWRENCE CLOUDY 40 26 57 W6 30.25R BEDFORD CLOUDY 37 25 61 W6 30.24R BLUE HILL N/A 33 25 72 W13 30.21R WCI 24 NORWOOD FAIR 37 26 64 W5 30.25R MARSHFIELD FAIR 34 27 75 W5 30.24R WCI 30 PLYMOUTH FAIR 35 26 69 SW3 30.25R TAUNTON FAIR 33 27 78 CALM 30.26R NEW BEDFORD FAIR 35 28 75 W6 30.26R WCI 30 $$ MAZALL-180800- CAPE COD AND THE ISLANDS CITY SKY/WX TMP DP RH WIND PRES REMARKS FALMOUTH FAIR 32 27 80 W7 30.26R WCI 26 HYANNIS FAIR 38 26 62 W7 30.23R CHATHAM FAIR 36 28 73 W3 30.25R PROVINCETOWN FAIR 42 29 59 W14G22 30.24R NANTUCKET FAIR 41 27 57 NW13 30.25R MARTHAS VNYRD FAIR 39 27 62 NW7 30.26R $$ MAZALL-180800- CENTRAL AND WESTERN MASSACHUSETTS CITY SKY/WX TMP DP RH WIND PRES REMARKS WORCESTER FAIR 32 24 72 W8 30.22R WCI 25 FITCHBURG CLOUDY 34 25 69 CALM 30.25R ORANGE CLOUDY 38 24 57 W8G17 30.25R SPRINGFIELD CLOUDY 37 24 59 W14 30.26R WCI 28 WESTFIELD CLOUDY 37 23 56 NW16G24 30.27R WCI 28 NORTH ADAMS CLOUDY 34 24 67 W14 30.26R WCI 25 PITTSFIELD FAIR 32 20 61 VRB6 30.24R WCI 26 $$ RIZALL-180800- RHODE ISLAND CITY SKY/WX TMP DP RH WIND PRES REMARKS PROVIDENCE FAIR 34 27 75 W6 30.27R WCI 29 NEWPORT FAIR 38 29 70 W6 30.26R BLOCK ISLAND FAIR N/A N/A N/A NW13 30.28R SMITHFIELD FAIR 34 25 69 W3 30.26R WESTERLY CLOUDY 36 31 82 CALM 30.29R $$ CTZALL-180800- CONNECTICUT CITY SKY/WX TMP DP RH WIND PRES REMARKS BRADLEY INTL MOCLDY 38 24 57 NW12G23 30.29R WCI 30 HARTFORD CLOUDY 40 25 55 NW7 30.30R BRIDGEPORT MOCLDY 39 29 67 W5 30.30R DANBURY MOCLDY 37 26 64 CALM 30.30R GROTON MOCLDY 38 28 67 NW7 30.28R NEW HAVEN CLOUDY 42 28 57 NW7 30.29R CHESTER MOCLDY 36 27 69 NW3 30.28R MERIDEN CLOUDY 33 30 88 CALM 30.29R WILLIMANTIC CLOUDY 38 26 62 NW7 30.29R OXFORD FAIR 36 26 67 CALM 30.27R $$ MEZ002-015-021-024-NHZ003-005-008-011-012-014-VTZ005-008-180800- NORTHERN NEW ENGLAND CITY SKY/WX TMP DP RH WIND PRES REMARKS PORTLAND ME CLOUDY 37 23 56 NW9 30.22R WCI 30 BANGOR ME FAIR 30 23 75 NW8 30.21R WCI 22 CONCORD NH CLOUDY 35 25 66 NW9 30.23R WCI 28 MANCHESTER NH CLOUDY 38 27 64 W6 30.21R NASHUA NH CLOUDY 35 30 82 W5 30.24R WCI 31 PORTSMOUTH NH CLOUDY 36 28 72 W6 30.22R WCI 31 JAFFREY NH CLOUDY 35 27 72 W3 30.21R KEENE NH CLOUDY 35 28 75 W3 30.24R BURLINGTON VT FLURRIES 27 14 58 N14 30.32R WCI 16 MT. WASHINGTON SNOW 5 5 100 W49 N/A VSB 1/16WCI -24 $$ NYZ052-076-180800- EASTERN NEW YORK CITY SKY/WX TMP DP RH WIND PRES REMARKS ALBANY FAIR 34 21 59 W14 30.32R WCI 25 NEW YORK CITY MOCLDY 43 28 55 NW13 30.30R $$ ANZALL-180800- MARINE OBSERVATIONS STATION/POSITION TIME TEMP WIND PRES VSBY WAVE AIR SEA DIR/SP/G HT/PER (UTC) (F) (DEG/KT/KT) (MB) (MI) (FT/S) BOSTON BUOY 0650 43 51 290/ 17/ 21 1023.1R 3/ 3 BUZZARDS BAY 0600 42 310/ 15/ 17 1024.8R NANTUCKET SOUND 0650 42 48 300/ 16/ 19 1024.2R 2/ 3 MASS BAY-STELLWA 0604 42 48 290/ 17/ 21 1022.3R 1 7/8 2/ 3 ISLE OF SHOALS 0600 40 270/ 18/ 21 1022.2R S OF BLOCK IS 0643 55 N/A 4/ 6 $$ ......................KEY......................... SKY/WX - SKY CONDITION/PRESENT WEATHER TMP - TEMPERATURE IN FAHRENHEIT DWPT - DEWPOINT IN FAHRENHEIT RH - RELATIVE HUMIDITY IN PERCENT WIND - DIRECTION AND SPEED IN MPH PRES - MEAN SEA LEVEL PRESSURE IN INCHES OF HG WCI - WIND CHILL INDEX VSB - VISIBILITY IN MILES HX - HEAT INDEX TC - TEMPERATURE IN CELSIUS VRB - VARIABLE WIND DIRECTION N/A - NOT AVAILABLE